Погода в Чагорте

Россия / Республика Калмыкия     46°43′38″N   43°58′09″E
темп.,
°C
ветер,
м/с
пор.,
м/с
влажн.,
%
обл.,
%
осадки,
мм/ч
давл.,
гПа
погр.,
м
12 апреля, пн
пн1200:00+13в6145591 0.0 1018268
03:00+11в6155695 0.0 1018285
06:00+11в7165492 0.0 1018381
09:00+16вюв9134393 0.0 1020673
12:00+19вюв101340100 0.0 10201156
15:00+21вюв91238100 0.0 10201598
18:00+17вюв81347100 0.0 1021668
21:00+15вюв61550100 0.5 1022459
13 апреля, вт
вт1300:00+12вюв51260100 0.0 1022331
03:00+11вюв4863100 0.0 1022147
06:00+10вюв4107056 0.0 1023248
09:00+15юв712645 0.0 1023653
12:00+20вюв8124299 0.0 10221758
15:00+22вюв71027100 0.0 10212645
18:00+18вюв71238100 0.0 1020363
21:00+14вюв5124278 0.0 1021336
14 апреля, ср
ср1400:00+11вюв484395 0.0 1020120
03:00+10в444794 0.0 101961
06:00+10св485198 0.0 1018175
09:00+13всв485198 0.1 1017267
12:00+20юв7933100 0.0 10161434
15:00+18юв2445100 0.0 1015367
18:00+17вюв3648100 0.0 1015120
21:00+13юз3462100 0.0 101687
15 апреля, чт
чт1500:00+13в225892 0.0 101519
03:00+12с116393 0.0 101514
06:00+12ссв1268100 0.0 101515
09:00+15с225490 0.0 1016336
12:00+18сз334268 0.0 10151650
15:00+19зсз4441100 0.0 10141851
18:00+17зюз3556100 0.0 1015144
21:00+13з456919 0.0 101684
16 апреля, пт
пт1600:00+12з45675 0.0 101667
03:00+11зсз34715 0.0 101644
06:00+10сз357615 0.0 101781
09:00+16сз445856 0.0 1017463
12:00+20сз334422 0.0 10171456
15:00+21ссз3338100 0.0 10162269
18:00+18с3550100 0.0 1016105
21:00+16св3453100 0.0 101760